Location: Chevoux
(46.3801°N, 4.9476°E)
Time: 12:40:21
(UTC+00:00)

ARGOS - Pass Details

Date: 28 January 2021
Orbit: 821 x 834 km, 98.4° (Epoch: 06 March)

Event Time Altitude Azimuth Distance (km) Brightness Sun altitude
Rises 18:21:10 0° 156° (SSE) 3,343 6.1 -17.7°
Reaches altitude 10° 18:23:30 10° 154° (SSE) 2,416 5.4 -18.1°
Maximum altitude 18:28:49 68° 72° (ENE) 889 3.0 -19.0°
Drops below altitude 10° 18:34:10 10° 351° (N) 2,441 5.6 -19.9°
Sets 18:36:33 0° 349° (N) 3,381 6.4 -20.3°
